Time,TemperatureF,DewpointF,PressureIn,WindDirection,WindDirectionDegrees,WindSpeedMPH,WindSpeedGustMPH,Humidity,HourlyPrecipIn,Conditions,Clouds,dailyrainin,SoftwareType,DateUTC
2015-08-28 00:12:00,81.8,76.0,29.98,ESE,123,5.0,8.0,82,0.00,,,0.00,weatherlink.com 1.10,2015-08-28 04:12:00,
2015-08-28 00:27:00,81.8,76.0,29.97,ESE,121,3.0,8.0,83,0.00,,,0.00,weatherlink.com 1.10,2015-08-28 04:27:00,
2015-08-28 00:42:00,82.0,77.0,29.96,ESE,121,7.0,10.0,84,0.00,,,0.00,weatherlink.com 1.10,2015-08-28 04:42:00,
2015-08-28 00:57:00,81.8,76.0,29.95,SE,126,3.0,10.0,83,0.00,,,0.00,weatherlink.com 1.10,2015-08-28 04:57:00,
2015-08-28 01:12:00,81.8,76.0,29.95,ESE,123,3.0,9.0,83,0.00,,,0.00,weatherlink.com 1.10,2015-08-28 05:12:00,
2015-08-28 01:27:00,81.9,76.0,29.95,SE,137,6.0,7.0,83,0.00,,,0.00,weatherlink.com 1.10,2015-08-28 05:27:00,
2015-08-28 01:42:00,81.8,76.0,29.94,SE,133,5.0,10.0,82,0.00,,,0.00,weatherlink.com 1.10,2015-08-28 05:42:00,
2015-08-28 01:57:00,81.8,76.0,29.94,SE,137,2.0,9.0,81,0.00,,,0.00,weatherlink.com 1.10,2015-08-28 05:57:00,
2015-08-28 02:12:00,81.9,76.0,29.94,SE,137,3.0,8.0,82,0.00,,,0.00,weatherlink.com 1.10,2015-08-28 06:12:00,
2015-08-28 02:27:00,81.9,76.0,29.94,SE,130,5.0,10.0,83,0.00,,,0.00,weatherlink.com 1.10,2015-08-28 06:27:00,
2015-08-28 02:43:00,81.8,76.0,29.93,SE,141,4.0,8.0,83,0.00,,,0.00,weatherlink.com 1.10,2015-08-28 06:43:00,
2015-08-28 02:58:00,81.6,76.0,29.92,SE,135,6.0,8.0,83,0.00,,,0.00,weatherlink.com 1.10,2015-08-28 06:58:00,
2015-08-28 03:13:00,81.6,76.0,29.92,SE,129,2.0,6.0,82,0.00,,,0.00,weatherlink.com 1.10,2015-08-28 07:13:00,
2015-08-28 03:28:00,81.3,75.0,29.92,SE,128,0.0,3.0,82,0.00,,,0.00,weatherlink.com 1.10,2015-08-28 07:28:00,
2015-08-28 03:43:00,80.9,75.0,29.92,SE,129,2.0,3.0,83,0.00,,,0.00,weatherlink.com 1.10,2015-08-28 07:43:00,
2015-08-28 03:58:00,80.7,75.0,29.92,SE,129,0.0,2.0,83,0.00,,,0.00,weatherlink.com 1.10,2015-08-28 07:58:00,
2015-08-28 04:13:00,80.6,75.0,29.92,SE,128,2.0,4.0,84,0.00,,,0.00,weatherlink.com 1.10,2015-08-28 08:13:00,
2015-08-28 04:28:00,80.6,75.0,29.91,SE,128,2.0,4.0,84,0.00,,,0.00,weatherlink.com 1.10,2015-08-28 08:28:00,
2015-08-28 04:43:00,80.7,76.0,29.91,SE,128,2.0,4.0,84,0.00,,,0.00,weatherlink.com 1.10,2015-08-28 08:43:00,
2015-08-28 04:58:00,80.9,76.0,29.92,SE,129,3.0,4.0,85,0.00,,,0.00,weatherlink.com 1.10,2015-08-28 08:58:00,
2015-08-28 05:13:00,81.2,76.0,29.92,SE,130,4.0,5.0,85,0.00,,,0.00,weatherlink.com 1.10,2015-08-28 09:13:00,
2015-08-28 05:28:00,81.3,77.0,29.92,SE,130,4.0,5.0,85,0.00,,,0.00,weatherlink.com 1.10,2015-08-28 09:28:00,
2015-08-28 05:43:00,81.4,77.0,29.93,SE,128,1.0,4.0,85,0.00,,,0.00,weatherlink.com 1.10,2015-08-28 09:43:00,
2015-08-28 05:58:00,81.2,76.0,29.93,SE,128,1.0,3.0,85,0.00,,,0.00,weatherlink.com 1.10,2015-08-28 09:58:00,
2015-08-28 06:13:00,81.2,76.0,29.93,SE,129,0.0,4.0,85,0.00,,,0.00,weatherlink.com 1.10,2015-08-28 10:13:00,
2015-08-28 06:28:00,81.1,76.0,29.93,SE,128,2.0,4.0,85,0.00,,,0.00,weatherlink.com 1.10,2015-08-28 10:28:00,
2015-08-28 06:43:00,81.2,76.0,29.94,SE,128,1.0,4.0,85,0.00,,,0.00,weatherlink.com 1.10,2015-08-28 10:43:00,
2015-08-28 06:58:00,81.1,77.0,29.94,SE,128,0.0,0.0,86,0.00,,,0.00,weatherlink.com 1.10,2015-08-28 10:58:00,
2015-08-28 07:13:00,81.2,77.0,29.95,SE,128,3.0,3.0,86,0.00,,,0.00,weatherlink.com 1.10,2015-08-28 11:13:00,
2015-08-28 07:28:00,81.4,77.0,29.95,SE,128,1.0,3.0,86,0.00,,,0.00,weatherlink.com 1.10,2015-08-28 11:28:00,
2015-08-28 07:43:00,82.0,78.0,29.96,SE,128,0.0,4.0,86,0.00,,,0.00,weatherlink.com 1.10,2015-08-28 11:43:00,
2015-08-28 07:58:00,83.2,78.0,29.96,SE,128,1.0,5.0,85,0.00,,,0.00,weatherlink.com 1.10,2015-08-28 11:58:00,
2015-08-28 08:13:00,84.3,79.0,29.97,ESE,122,3.0,7.0,83,0.00,,,0.00,weatherlink.com 1.10,2015-08-28 12:13:00,
2015-08-28 08:28:00,85.2,78.0,29.96,SE,136,5.0,8.0,80,0.00,,,0.00,weatherlink.com 1.10,2015-08-28 12:28:00,
2015-08-28 08:43:00,85.9,79.0,29.97,SSE,147,7.0,10.0,80,0.00,,,0.00,weatherlink.com 1.10,2015-08-28 12:43:00,
2015-08-28 08:58:00,86.7,80.0,29.97,ESE,122,3.0,7.0,79,0.00,,,0.00,weatherlink.com 1.10,2015-08-28 12:58:00,
2015-08-28 09:13:00,87.3,80.0,29.97,SSE,154,3.0,9.0,78,0.00,,,0.00,weatherlink.com 1.10,2015-08-28 13:13:00,
2015-08-28 09:28:00,87.6,79.0,29.97,South,171,6.0,10.0,76,0.00,,,0.00,weatherlink.com 1.10,2015-08-28 13:28:00,
2015-08-28 09:43:00,87.9,79.0,29.98,SSE,160,2.0,10.0,75,0.00,,,0.00,weatherlink.com 1.10,2015-08-28 13:43:00,
2015-08-28 09:58:00,89.0,80.0,29.98,SSE,147,6.0,9.0,75,0.00,,,0.00,weatherlink.com 1.10,2015-08-28 13:58:00,
2015-08-28 10:13:00,90.4,80.0,29.98,ESE,118,3.0,12.0,71,0.00,,,0.00,weatherlink.com 1.10,2015-08-28 14:13:00,
2015-08-28 10:28:00,91.2,79.0,29.98,SE,126,5.0,10.0,68,0.00,,,0.00,weatherlink.com 1.10,2015-08-28 14:28:00,
2015-08-28 10:43:00,92.8,79.0,29.98,ESE,117,7.0,9.0,64,0.00,,,0.00,weatherlink.com 1.10,2015-08-28 14:43:00,
2015-08-28 10:58:00,93.3,78.0,29.98,SE,125,7.0,10.0,62,0.00,,,0.00,weatherlink.com 1.10,2015-08-28 14:58:00,
2015-08-28 11:13:00,93.9,78.0,29.99,ESE,112,5.0,10.0,61,0.00,,,0.00,weatherlink.com 1.10,2015-08-28 15:13:00,